NOAA NWS Hourly Roundups by Site

Regional Weather Roundup for Twin Cities, MN

To Select Another Site Choose from List

Select Site:  

778
ASUS43 KMPX 250410
RWRMN
WEATHER ROUNDUP FOR MINNESOTA
NATIONAL WEATHER SERVICE TWIN CITIES/CHANHASSEN MN
1100 PM CDT FRI MAY 24 2024


NOTE: "FAIR" INDICATES FEW OR NO CLOUDS BELOW 12,000 FEET WITH NO
SIGNIFICANT WEATHER AND/OR OBSTRUCTIONS TO VISIBILITY. N/A MEANS
CURRENT SKY AND/OR WEATHER CONDITIONS ARE NOT AVAILABLE.

MNZ060>063-068>070-250500-
   Twin Cities Metro

CITY           SKY/WX    TMP DP  RH WIND       PRES   REMARKS
TWIN CITIES    PTCLDY    51  37  58 W12       29.77R
ST PAUL        PTCLDY    51  37  58 W12G26    29.77R
CRYSTAL        PTCLDY    50  37  61 W10       29.75R
BLAINE         PTCLDY    52  37  58 W16       29.76R
LAKEVILLE      CLEAR     48  39  71 W6        29.79S
EDEN PRAIRIE   CLEAR     50  39  66 W7        29.76R
SOUTH ST PAUL  MOCLDY    51  37  57 W13G20    29.77R
LAKE ELMO      MOCLDY    50  37  62 W15G22    29.78R
$$
MNZ001>005-007-008-013>017-022>024-027-028-250500-
   Northwest Minnesota

CITY           SKY/WX    TMP DP  RH WIND       PRES   REMARKS
BEMIDJI        CLOUDY    38  38  99 SW10      29.52R FOG
HALLOCK        CLOUDY    45  43  93 W17G24    29.40R
ROSEAU         RAIN      46  45  93 S15       29.39R
WARROAD        RAIN      50  46  87 CALM      29.39R
THIEF RVR FALL LGT RAIN  39  38  96 W24G32    29.46R
CROOKSTON      MIX PCPN  39  36  87 W22G31    29.51R
FOSSTON        CLOUDY    37  36  93 W17       29.53R FOG
DETROIT LAKES  CLOUDY    41  37  87 W16G26    29.60S
MOORHEAD       PTCLDY    43  36  75 W26G32    29.62S
PARK RAPIDS    CLOUDY    41  37  86 W25G38    29.57R
MAHNOMEN       DRIZZLE   39  38  97 W24G31    29.55S
$$
MNZ006-009>011-018-025>026-250500-
   North Central Minnesota

CITY           SKY/WX    TMP DP  RH WIND       PRES   REMARKS
BAUDETTE       LGT RAIN  53  48  83 SW20G31   29.40R
INTL FALLS     LGT RAIN  50  47  89 S7        29.43S
WASKISH        CLOUDY    45  41  87 SW14G20   29.46R
BIG FORK       CLOUDY    46  43  87 SW14      29.55R
LONGVILLE      CLOUDY    41  37  87 SW12G26   29.57S
GRAND RAPIDS   CLOUDY    43  38  82 SW10G20   29.57R
CRANE LAKE       N/A     48  46  93 CALM      29.51S
ORR            DRIZZLE   46  46 100 SW13G22   29.47R
COOK           DRIZZLE   46  45  93 SW6G20    29.50R
WALKER         CLOUDY    39  38  95 SW14G23   29.55S
$$
MNZ012-019>021-037-250500-
   Northeast Minnesota

CITY           SKY/WX    TMP DP  RH WIND       PRES   REMARKS
DULUTH         PTCLDY    44  40  85 SW15      29.59R
ELY            CLOUDY    48  48 100 S9        29.54R
HIBBING        CLOUDY    44  41  89 SW8G22    29.54R
EVELETH        CLOUDY    46  45  94 SW10G16   29.55R
DULUTH HARBOR  PTCLDY    43  43 100 SW9       29.61R
TWO HARBORS    PTCLDY    45  43  93 SW6       29.59R
GRAND MARAIS     N/A     49  41  74 E16       29.58R
G MARAIS ARPRT LGT RAIN  46  39  76 S5        29.57R
$$
MNZ029>031-032-039>041-046>048-054>057-064-250500-
   West Central Minnesota

CITY           SKY/WX    TMP DP  RH WIND       PRES   REMARKS
FERGUS FALLS   MOCLDY    45  43  93 W15G23    29.66S
WHEATON        CLEAR     46  39  76 W5        29.72S
MORRIS         CLEAR     45  43  93 W6        29.70S
ALEXANDRIA     CLEAR     45  39  79 W15G25    29.69R
ELBOW LAKE     CLEAR     46  40  82 W14       29.69S
WADENA         CLOUDY    43  37  81 W14G28    29.63R
GLENWOOD       CLEAR     46  39  76 W20G25    29.70S
APPLETON       CLEAR     46  43  87 CALM      29.73S
BENSON         CLEAR     46  41  81 SW5       29.73F
ORTONVILLE     CLEAR     46  43  87 CALM      29.72S
MADISON        CLEAR     50  46  87 S6        29.75F
WILLMAR        CLEAR     48  41  76 W9        29.74S
$$
MNZ033>034-036-042>043-049>051-058-059-250500-
   Central Minnesota

CITY           SKY/WX    TMP DP  RH WIND       PRES   REMARKS
ST CLOUD       PTCLDY    49  38  65 W17G23    29.71R
SAUK CENTRE    CLEAR     45  39  79 SW13G22   29.70R
PAYNESVILLE    CLEAR     46  39  76 W15G22    29.73S
AITKIN         CLOUDY    45  37  76 SW12G20   29.63R
PINE RIVER     CLOUDY    43  37  81 W10G22    29.64S
BRAINERD       CLOUDY    46  36  68 SW15G31   29.64R
STAPLES        CLOUDY    46  37  71 W17       29.64R
LONG PRAIRIE   CLOUDY    45  37  76 W10G18    29.68S
LITTLE FALLS   CLOUDY    45  37  76 SW7       29.68R
CAMP RIPLEY    CLOUDY    47  38  70 SW7       29.65S
LITCHFIELD     CLEAR     46  39  76 W7        29.74S
BUFFALO        MOCLDY    48  41  76 SW8       29.74F
MAPLE LAKE     CLEAR     48  38  69 SW3       29.75S
HUTCHINSON     CLEAR     49  39  70 W6        29.78S
$$
MNZ037-044-045-052-053-250500-
   East Central Minnesota

CITY           SKY/WX    TMP DP  RH WIND       PRES   REMARKS
PRINCETON      PTCLDY    48  37  66 W8        29.72F
MORA           CLOUDY    46  36  66 W12G23    29.73R
CAMBRIDGE      MOCLDY    48  39  71 W10G18    29.73R
RUSH CITY      CLOUDY    48  37  63 W12G23    29.72R
MOOSE LAKE     CLOUDY    46  37  71 SW12G21   29.64R
HINCKLEY       CLOUDY    48  39  71 SW12G20   29.68S
CLOQUET        MOCLDY    46  37  71 SW16G22   29.59R
MCGREGOR       CLOUDY    45  36  70 SW13G24   29.63R
$$
MNZ071>073-080-081-089-090-097-098-250500-
   Southwest Minnesota

CITY           SKY/WX    TMP DP  RH WIND       PRES   REMARKS
MONTEVIDEO     CLEAR     48  43  81 SW5       29.75F
GRANITE FALLS  CLEAR     46  43  88 S6        29.77F
CANBY          CLEAR     50  42  73 SW7       29.76S
MARSHALL       CLEAR     48  43  82 SW8       29.77F
REDWOOD FALLS  CLEAR     46  42  86 S6        29.77S
OLIVIA         CLEAR     46  43  87 SW5       29.76S
WINDOM         CLEAR     48  43  81 SW3       29.81R
WORTHINGTON    CLEAR     50  45  83 SW6       29.83R
JACKSON        CLEAR     48  43  81 SW5       29.82R
TRACY          CLEAR     48  46  93 SW7       29.78S
SLAYTON        CLEAR     46  41  81 SW6       29.81R
$$
MNZ065>067-074>077-082>085-091>093-250500-
   South Central Minnesota

CITY           SKY/WX    TMP DP  RH WIND       PRES   REMARKS
MANKATO        CLEAR     50  42  74 W5        29.81R
ST JAMES       CLEAR     48  48 100 SW3       29.80S
FAIRMONT       CLEAR     51  45  79 W3        29.83R
GLENCOE        CLEAR     48  41  76 W5        29.77S
FARIBAULT      CLEAR     50  43  76 W7        29.81R
OWATONNA       CLEAR     50  43  76 W9        29.81R
WASECA         CLEAR     48  43  81 W3        29.83R
ALBERT LEA     CLEAR     50  45  81 CALM      29.83R
$$
MNZ078>079-086>088-094>096-250500-
   Southeast Minnesota

CITY           SKY/WX    TMP DP  RH WIND       PRES   REMARKS
ROCHESTER      CLEAR     50  41  71 W15       29.79S
RED WING         N/A     54  39  58 W15       29.76R
STANTON        CLEAR     51  39  64 W13G22    29.80R
DODGE CENTER   CLEAR     48  43  81 W10       29.81R
WINONA         CLEAR     54  39  58 W9G20     29.79R
AUSTIN         CLEAR     52  45  76 W6        29.83R
PRESTON          N/A     52  45  76 W15       29.80R
$$
ABBREVIATIONS USED IN REMARKS
   TC - TEMPERATURES IN CELSIUS
  WCI - WIND CHILL INDEX
   HX - HEAT INDEX
  VSB - VISIBILITY
$$



 

View Past Reports for Twin Cities, MN.

Products Courtesy of NOAA-NWS
NWS Information Parsing Script by Ken True at Saratoga Weather - Script by SE Lincoln Weather.